Hourly Weather Rusiborek

Today, 15 April, Thursday

Time Temperature Precipitation Wind Pressure Humidity
00:00 +2°C° 0 mm 3 mps 759 mmHg 77%
01:00 +1°C° 0 mm 4 mps 759 mmHg 76%
02:00 0°C° 0.1 mm 4 mps 758 mmHg 79%
03:00 0°C° 0.1 mm 5 mps 758 mmHg 83%
04:00 0°C° 0.1 mm 5 mps 758 mmHg 86%
05:00 0°C° 0.3 mm 5 mps 758 mmHg 89%
06:00 -2°C° 0.3 mm 6 mps 758 mmHg 93%
07:00 -2°C° 0.3 mm 6 mps 758 mmHg 96%
08:00 -1°C° 0.6 mm 6 mps 758 mmHg 96%
09:00 -1°C° 0.6 mm 7 mps 758 mmHg 96%
10:00 -1°C° 0.6 mm 7 mps 757 mmHg 96%
11:00 -1°C° 1 mm 7 mps 757 mmHg 96%
12:00 -1°C° 1 mm 7 mps 757 mmHg 97%
13:00 -1°C° 1 mm 6 mps 757 mmHg 97%
14:00 -1°C° 0.8 mm 6 mps 757 mmHg 97%
15:00 -1°C° 0.8 mm 6 mps 756 mmHg 97%
16:00 0°C° 0.8 mm 5 mps 756 mmHg 97%
17:00 0°C° 0.7 mm 5 mps 756 mmHg 98%
18:00 0°C° 0.7 mm 5 mps 756 mmHg 98%
19:00 0°C° 0.7 mm 5 mps 756 mmHg 98%
20:00 0°C° 0.7 mm 4 mps 756 mmHg 98%
21:00 +1°C° 0.7 mm 4 mps 756 mmHg 97%
22:00 +1°C° 0.7 mm 4 mps 756 mmHg 97%
23:00 +1°C° 0.2 mm 4 mps 756 mmHg 97%

Tomorrow, 16 April, Friday

Time Temperature Precipitation Wind Pressure Humidity
00:00 +1°C° 0.2 mm 4 mps 756 mmHg 96%
01:00 +3°C° 0.2 mm 4 mps 755 mmHg 96%
02:00 +1°C° 0.3 mm 4 mps 756 mmHg 95%
03:00 +1°C° 0.3 mm 4 mps 756 mmHg 93%
04:00 +1°C° 0.3 mm 4 mps 756 mmHg 92%
05:00 +1°C° 0.1 mm 4 mps 756 mmHg 91%
06:00 +1°C° 0.1 mm 4 mps 756 mmHg 90%
07:00 +1°C° 0.1 mm 4 mps 756 mmHg 89%
08:00 +3°C° 0.1 mm 4 mps 756 mmHg 88%
09:00 +2°C° 0.1 mm 5 mps 756 mmHg 88%
10:00 +3°C° 0.1 mm 5 mps 756 mmHg 87%
11:00 +3°C° 0 mm 5 mps 756 mmHg 88%
12:00 +3°C° 0 mm 5 mps 756 mmHg 89%
13:00 +3°C° 0 mm 5 mps 756 mmHg 89%
14:00 +4°C° 0.1 mm 4 mps 756 mmHg 90%
15:00 +4°C° 0.1 mm 4 mps 756 mmHg 91%
16:00 +4°C° 0.1 mm 4 mps 756 mmHg 92%
17:00 +3°C° 0.1 mm 3 mps 756 mmHg 93%
18:00 +3°C° 0.1 mm 3 mps 756 mmHg 95%
19:00 +3°C° 0.1 mm 3 mps 756 mmHg 96%
20:00 +3°C° 0 mm 3 mps 756 mmHg 96%
21:00 +3°C° 0 mm 3 mps 756 mmHg 97%
22:00 +4°C° 0 mm 2 mps 756 mmHg 97%
23:00 +4°C° 0 mm 2 mps 756 mmHg 97%

Day after tomorrow, 17 April, Saturday

Time Temperature Precipitation Wind Pressure Humidity
00:00 +4°C° 0 mm 2 mps 756 mmHg 97%
01:00 +4°C° 0 mm 2 mps 756 mmHg 97%
02:00 +4°C° 0 mm 2 mps 756 mmHg 97%
03:00 +4°C° 0 mm 2 mps 756 mmHg 97%
04:00 +4°C° 0 mm 2 mps 756 mmHg 97%
05:00 +4°C° 0 mm 2 mps 756 mmHg 96%
06:00 +4°C° 0 mm 2 mps 756 mmHg 96%
07:00 +4°C° 0 mm 2 mps 756 mmHg 96%
08:00 +5°C° 0 mm 2 mps 756 mmHg 94%
09:00 +5°C° 0 mm 3 mps 756 mmHg 92%
10:00 +5°C° 0 mm 3 mps 756 mmHg 91%
11:00 +7°C° 0.1 mm 3 mps 756 mmHg 92%
12:00 +7°C° 0.1 mm 2 mps 756 mmHg 94%
13:00 +7°C° 0.1 mm 2 mps 756 mmHg 95%
14:00 +7°C° 0.1 mm 2 mps 756 mmHg 94%
15:00 +8°C° 0.1 mm 2 mps 756 mmHg 93%
16:00 +8°C° 0.1 mm 2 mps 756 mmHg 91%
17:00 +8°C° 0.1 mm 2 mps 756 mmHg 92%
18:00 +9°C° 0.1 mm 1 mps 756 mmHg 92%
19:00 +9°C° 0.1 mm 1 mps 756 mmHg 93%
20:00 +8°C° 0.1 mm 1 mps 756 mmHg 94%
21:00 +7°C° 0.1 mm 2 mps 756 mmHg 94%
22:00 +6°C° 0.1 mm 2 mps 756 mmHg 95%
23:00 +6°C° 0.1 mm 2 mps 756 mmHg 95%

18 April, Sunday

Time Temperature Precipitation Wind Pressure Humidity
00:00 +6°C° 0.1 mm 2 mps 756 mmHg 95%
01:00 +5°C° 0.1 mm 2 mps 756 mmHg 95%
02:00 +6°C° 0.1 mm 2 mps 755 mmHg 94%
03:00 +6°C° 0.1 mm 2 mps 755 mmHg 94%
04:00 +6°C° 0.1 mm 2 mps 755 mmHg 94%
05:00 +6°C° 0 mm 2 mps 755 mmHg 93%
06:00 +6°C° 0 mm 2 mps 755 mmHg 92%
07:00 +5°C° 0 mm 3 mps 755 mmHg 91%
08:00 +7°C° 0 mm 3 mps 755 mmHg 88%
09:00 +7°C° 0 mm 3 mps 755 mmHg 85%
10:00 +8°C° 0 mm 3 mps 755 mmHg 82%
11:00 +9°C° 0.1 mm 3 mps 755 mmHg 78%
12:00 +9°C° 0.1 mm 3 mps 755 mmHg 74%
13:00 +10°C° 0.1 mm 3 mps 755 mmHg 70%
14:00 +10°C° 0.1 mm 3 mps 755 mmHg 68%
15:00 +11°C° 0.1 mm 3 mps 755 mmHg 67%
16:00 +11°C° 0.1 mm 3 mps 755 mmHg 65%
17:00 +10°C° 0 mm 2 mps 755 mmHg 70%
18:00 +9°C° 0 mm 2 mps 755 mmHg 75%
19:00 +8°C° 0 mm 2 mps 755 mmHg 80%
20:00 +8°C° 0 mm 2 mps 755 mmHg 82%
21:00 +7°C° 0 mm 2 mps 755 mmHg 85%
22:00 +7°C° 0 mm 2 mps 755 mmHg 87%
23:00 +7°C° 0 mm 2 mps 755 mmHg 87%

19 April, Monday

Time Temperature Precipitation Wind Pressure Humidity
00:00 +7°C° 0 mm 2 mps 755 mmHg 87%
01:00 +7°C° 0 mm 2 mps 755 mmHg 87%
02:00 +6°C° 0 mm 2 mps 755 mmHg 87%
03:00 +6°C° 0 mm 2 mps 755 mmHg 88%
04:00 +6°C° 0 mm 2 mps 754 mmHg 88%
05:00 +7°C° 0 mm 2 mps 754 mmHg 87%
06:00 +7°C° 0 mm 3 mps 754 mmHg 85%
07:00 +8°C° 0 mm 3 mps 754 mmHg 83%
08:00 +8°C° 0 mm 4 mps 754 mmHg 79%
09:00 +10°C° 0 mm 4 mps 754 mmHg 74%
10:00 +9°C° 0 mm 5 mps 754 mmHg 70%
11:00 +9°C° 0.1 mm 5 mps 753 mmHg 73%
12:00 +9°C° 0.1 mm 5 mps 753 mmHg 76%
13:00 +8°C° 0.1 mm 5 mps 753 mmHg 80%
14:00 +8°C° 0 mm 4 mps 753 mmHg 79%
15:00 +10°C° 0 mm 4 mps 752 mmHg 79%
16:00 +10°C° 0 mm 3 mps 752 mmHg 79%
17:00 +9°C° 0.3 mm 3 mps 752 mmHg 83%
18:00 +9°C° 0.3 mm 3 mps 752 mmHg 87%
19:00 +8°C° 0.3 mm 3 mps 751 mmHg 92%
20:00 +8°C° 0.1 mm 3 mps 751 mmHg 93%
21:00 +8°C° 0.1 mm 3 mps 751 mmHg 93%
22:00 +8°C° 0.1 mm 3 mps 751 mmHg 94%
23:00 +8°C° 0.2 mm 3 mps 750 mmHg 95%

20 April, Tuesday

Time Temperature Precipitation Wind Pressure Humidity
00:00 +8°C° 0.2 mm 2 mps 750 mmHg 96%
01:00 +8°C° 0.2 mm 2 mps 750 mmHg 96%
02:00 +8°C° 0.3 mm 3 mps 749 mmHg 96%
03:00 +8°C° 0.3 mm 3 mps 749 mmHg 95%
04:00 +8°C° 0.3 mm 3 mps 749 mmHg 95%
05:00 +8°C° 0.1 mm 3 mps 748 mmHg 93%
06:00 +7°C° 0.1 mm 4 mps 748 mmHg 92%
07:00 +7°C° 0.1 mm 4 mps 748 mmHg 91%
08:00 +8°C° 0 mm 4 mps 748 mmHg 87%
09:00 +10°C° 0 mm 4 mps 748 mmHg 83%
10:00 +11°C° 0 mm 4 mps 747 mmHg 79%
11:00 +11°C° 0.4 mm 4 mps 747 mmHg 78%
12:00 +11°C° 0.4 mm 4 mps 747 mmHg 77%
13:00 +10°C° 0.4 mm 5 mps 747 mmHg 75%
14:00 +12°C° 0.2 mm 5 mps 747 mmHg 74%
15:00 +12°C° 0.2 mm 5 mps 746 mmHg 73%
16:00 +12°C° 0.2 mm 5 mps 746 mmHg 72%
17:00 +11°C° 0.1 mm 4 mps 746 mmHg 78%
18:00 +10°C° 0.1 mm 3 mps 746 mmHg 83%
19:00 +8°C° 0.1 mm 3 mps 746 mmHg 89%
20:00 +8°C° 0 mm 3 mps 746 mmHg 90%
21:00 +7°C° 0 mm 3 mps 746 mmHg 91%
22:00 +7°C° 0 mm 3 mps 746 mmHg 93%
23:00 +7°C° 0 mm 3 mps 746 mmHg 92%
Show more